User: anonymous   Login
Location: Mascot Post Office (historical)
(40.2645°N, 99.5462°W)
Time: 11:04:05
(UTC+00:00)
Language:

Aureole 2 Rocket - Orbit

View from above orbital plane
View from above orbital plane
View from above satellite
View from above satellite

Ground track
Ground track

The orbit data is extracted from the following two-line orbital elements,

1  7004U 73107B   20270.89870245 +.00026950 +19491-5 +19029-3 0  9998
2  7004 073.9176 285.7833 0089210 207.9597 151.6819 15.68876048423138
Epoch (UTC): 26 September 2020 21:34:07
Eccentricity: 0.0089210
inclination: 73.9176°
perigee height: 302 km
apogee height: 422 km
right ascension of ascending node: 285.7833°
argument of perigee: 207.9597°
revolutions per day: 15.68876048
mean anomaly at epoch: 151.6819°
orbit number at epoch: 42313

The dashed part of the orbit path shows where the satellite is in the earth's shadow,  

DLR